Time,TemperatureF,DewpointF,PressureIn,WindDirection,WindDirectionDegrees,WindSpeedMPH,WindSpeedGustMPH,Humidity,HourlyPrecipIn,Conditions,Clouds,dailyrainin,SoftwareType,DateUTC
2013-04-03 00:04:00,28.0,13.9,29.85,SE,135,4.0,14.0,55,0.00,,,0.00,Weather View 32 v70,2013-04-03 04:04:00,
2013-04-03 00:10:00,28.0,13.9,29.85,SW,225,4.0,14.0,55,0.00,,,0.00,Weather View 32 v70,2013-04-03 04:10:00,
2013-04-03 00:14:00,28.0,13.5,29.85,SW,225,6.0,14.0,54,0.00,,,0.00,Weather View 32 v70,2013-04-03 04:14:00,
2013-04-03 00:24:00,28.0,13.5,29.86,WSW,248,5.0,14.0,54,0.00,,,0.00,Weather View 32 v70,2013-04-03 04:24:00,
2013-04-03 00:29:00,28.0,13.5,29.85,South,180,1.0,16.0,54,0.00,,,0.00,Weather View 32 v70,2013-04-03 04:29:00,
2013-04-03 00:35:00,28.0,13.5,29.86,WNW,292,3.0,16.0,54,0.00,,,0.00,Weather View 32 v70,2013-04-03 04:35:00,
2013-04-03 00:42:00,28.0,13.9,29.86,SSE,158,3.0,16.0,55,0.00,,,0.00,Weather View 32 v70,2013-04-03 04:42:00,
2013-04-03 00:50:00,28.0,13.5,29.85,WNW,292,1.0,16.0,54,0.00,,,0.00,Weather View 32 v70,2013-04-03 04:50:00,
2013-04-03 00:59:00,28.0,13.5,29.85,SE,135,4.0,16.0,54,0.00,,,0.00,Weather View 32 v70,2013-04-03 04:59:00,
2013-04-03 01:10:00,28.0,13.9,29.85,SW,225,1.0,16.0,55,0.00,,,0.00,Weather View 32 v70,2013-04-03 05:10:00,
2013-04-03 01:19:00,28.0,14.3,29.85,SSE,158,2.0,19.0,56,0.00,,,0.00,Weather View 32 v70,2013-04-03 05:19:00,
2013-04-03 01:25:00,28.0,13.9,29.85,WSW,248,1.0,19.0,55,0.00,,,0.00,Weather View 32 v70,2013-04-03 05:25:00,
2013-04-03 01:34:00,28.0,13.9,29.85,South,180,0.0,19.0,55,0.00,,,0.00,Weather View 32 v70,2013-04-03 05:34:00,
2013-04-03 01:42:00,27.0,13.4,29.85,WNW,292,2.0,19.0,56,0.00,,,0.00,Weather View 32 v70,2013-04-03 05:42:00,
2013-04-03 01:49:00,27.0,13.4,29.86,SW,225,1.0,19.0,56,0.00,,,0.00,Weather View 32 v70,2013-04-03 05:49:00,
2013-04-03 02:00:00,27.0,13.0,29.85,SSE,158,3.0,19.0,55,0.00,,,0.00,Weather View 32 v70,2013-04-03 06:00:00,
2013-04-03 02:09:00,27.0,13.0,29.85,WSW,248,3.0,19.0,55,0.00,,,0.00,Weather View 32 v70,2013-04-03 06:09:00,
2013-04-03 02:20:00,27.0,13.0,29.85,SSW,202,3.0,15.0,55,0.00,,,0.00,Weather View 32 v70,2013-04-03 06:20:00,
2013-04-03 02:29:00,27.0,13.0,29.86,West,270,1.0,14.0,55,0.00,,,0.00,Weather View 32 v70,2013-04-03 06:29:00,
2013-04-03 02:40:00,27.0,13.0,29.86,WNW,292,3.0,14.0,55,0.00,,,0.00,Weather View 32 v70,2013-04-03 06:40:00,
2013-04-03 02:50:00,27.0,13.0,29.86,SSW,202,7.0,15.0,55,0.00,,,0.00,Weather View 32 v70,2013-04-03 06:50:00,
2013-04-03 02:59:00,27.0,12.6,29.86,WSW,248,3.0,18.0,54,0.00,,,0.00,Weather View 32 v70,2013-04-03 06:59:00,
2013-04-03 03:10:00,27.0,13.0,29.86,West,270,6.0,18.0,55,0.00,,,0.00,Weather View 32 v70,2013-04-03 07:10:00,
2013-04-03 03:19:00,27.0,13.0,29.86,SSW,202,10.0,18.0,55,0.00,,,0.00,Weather View 32 v70,2013-04-03 07:19:00,
2013-04-03 03:30:00,27.0,13.4,29.86,South,180,2.0,18.0,56,0.00,,,0.00,Weather View 32 v70,2013-04-03 07:30:00,
2013-04-03 03:35:00,27.0,13.0,29.85,SSE,158,2.0,18.0,55,0.00,,,0.00,Weather View 32 v70,2013-04-03 07:35:00,
2013-04-03 03:44:00,27.0,13.4,29.86,SSE,158,3.0,18.0,56,0.00,,,0.00,Weather View 32 v70,2013-04-03 07:44:00,
2013-04-03 03:49:00,27.0,13.0,29.86,SW,225,1.0,18.0,55,0.00,,,0.00,Weather View 32 v70,2013-04-03 07:49:00,
2013-04-03 03:59:00,27.0,13.0,29.86,WSW,248,3.0,13.0,55,0.00,,,0.00,Weather View 32 v70,2013-04-03 07:59:00,
2013-04-03 04:05:00,27.0,13.0,29.86,WSW,248,3.0,13.0,55,0.00,,,0.00,Weather View 32 v70,2013-04-03 08:05:00,
2013-04-03 04:14:00,26.0,11.6,29.86,SW,225,5.0,13.0,54,0.00,,,0.00,Weather View 32 v70,2013-04-03 08:14:00,
2013-04-03 04:20:00,26.0,12.0,29.86,South,180,4.0,14.0,55,0.00,,,0.00,Weather View 32 v70,2013-04-03 08:20:00,
2013-04-03 04:29:00,26.0,12.0,29.86,SSW,202,0.0,14.0,55,0.00,,,0.00,Weather View 32 v70,2013-04-03 08:29:00,
2013-04-03 04:39:00,26.0,12.0,29.86,West,270,5.0,14.0,55,0.00,,,0.00,Weather View 32 v70,2013-04-03 08:39:00,
2013-04-03 04:44:00,26.0,12.4,29.87,WNW,292,5.0,14.0,56,0.00,,,0.00,Weather View 32 v70,2013-04-03 08:44:00,
2013-04-03 04:54:00,26.0,12.0,29.87,SW,225,5.0,14.0,55,0.00,,,0.00,Weather View 32 v70,2013-04-03 08:54:00,
2013-04-03 05:00:00,26.0,12.4,29.87,South,180,2.0,21.0,56,0.00,,,0.00,Weather View 32 v70,2013-04-03 09:00:00,
2013-04-03 05:09:00,26.0,12.0,29.87,SSE,158,6.0,21.0,55,0.00,,,0.00,Weather View 32 v70,2013-04-03 09:09:00,
2013-04-03 05:20:00,26.0,12.4,29.87,WSW,248,3.0,21.0,56,0.00,,,0.00,Weather View 32 v70,2013-04-03 09:20:00,
2013-04-03 05:24:00,25.0,11.5,29.87,SSW,202,3.0,21.0,56,0.00,,,0.00,Weather View 32 v70,2013-04-03 09:24:00,
2013-04-03 05:34:00,25.0,11.1,29.87,West,270,1.0,21.0,55,0.00,,,0.00,Weather View 32 v70,2013-04-03 09:34:00,
2013-04-03 05:39:00,25.0,11.5,29.88,WNW,292,4.0,21.0,56,0.00,,,0.00,Weather View 32 v70,2013-04-03 09:39:00,
2013-04-03 05:45:00,25.0,11.5,29.88,SW,225,1.0,21.0,56,0.00,,,0.00,Weather View 32 v70,2013-04-03 09:45:00,
2013-04-03 05:54:00,25.0,11.9,29.87,South,180,6.0,21.0,57,0.00,,,0.00,Weather View 32 v70,2013-04-03 09:54:00,
2013-04-03 06:05:00,25.0,11.5,29.88,WSW,248,3.0,16.0,56,0.00,,,0.00,Weather View 32 v70,2013-04-03 10:05:00,
2013-04-03 06:14:00,25.0,12.3,29.89,SSW,202,7.0,16.0,58,0.00,,,0.00,Weather View 32 v70,2013-04-03 10:14:00,
2013-04-03 06:19:00,25.0,11.9,29.89,WSW,248,3.0,16.0,57,0.00,,,0.00,Weather View 32 v70,2013-04-03 10:19:00,
2013-04-03 06:29:00,25.0,12.3,29.90,SSW,202,3.0,16.0,58,0.00,,,0.00,Weather View 32 v70,2013-04-03 10:29:00,
2013-04-03 06:35:00,25.0,12.3,29.90,WNW,292,3.0,16.0,58,0.00,,,0.00,Weather View 32 v70,2013-04-03 10:35:00,
2013-04-03 06:40:00,25.0,12.3,29.90,SE,135,2.0,16.0,58,0.00,,,0.00,Weather View 32 v70,2013-04-03 10:40:00,
2013-04-03 06:45:00,25.0,11.9,29.90,WSW,248,4.0,16.0,57,0.00,,,0.00,Weather View 32 v70,2013-04-03 10:45:00,
2013-04-03 06:55:00,25.0,12.7,29.91,SSW,202,2.0,16.0,59,0.00,,,0.00,Weather View 32 v70,2013-04-03 10:55:00,
2013-04-03 06:59:00,25.0,12.3,29.91,South,180,5.0,16.0,58,0.00,,,0.00,Weather View 32 v70,2013-04-03 10:59:00,
2013-04-03 07:09:00,25.0,11.9,29.91,South,180,5.0,16.0,57,0.00,,,0.00,Weather View 32 v70,2013-04-03 11:09:00,
2013-04-03 07:14:00,25.0,11.5,29.91,SSE,158,2.0,16.0,56,0.00,,,0.00,Weather View 32 v70,2013-04-03 11:14:00,
2013-04-03 07:20:00,25.0,11.9,29.92,SW,225,6.0,16.0,57,0.00,,,0.00,Weather View 32 v70,2013-04-03 11:20:00,
2013-04-03 07:24:00,25.0,11.9,29.92,WSW,248,1.0,15.0,57,0.00,,,0.00,Weather View 32 v70,2013-04-03 11:24:00,
2013-04-03 07:34:00,25.0,11.9,29.93,SSW,202,3.0,15.0,57,0.00,,,0.00,Weather View 32 v70,2013-04-03 11:34:00,
2013-04-03 07:45:00,26.0,12.0,29.92,SSE,158,5.0,13.0,55,0.00,,,0.00,Weather View 32 v70,2013-04-03 11:45:00,
2013-04-03 07:54:00,27.0,12.6,29.92,SW,225,5.0,13.0,54,0.00,,,0.00,Weather View 32 v70,2013-04-03 11:54:00,
2013-04-03 08:00:00,27.0,13.0,29.92,SE,135,2.0,13.0,55,0.00,,,0.00,Weather View 32 v70,2013-04-03 12:00:00,
2013-04-03 08:09:00,27.0,12.1,29.92,SSE,158,6.0,14.0,53,0.00,,,0.00,Weather View 32 v70,2013-04-03 12:09:00,
2013-04-03 08:19:00,27.0,12.1,29.92,SSE,158,8.0,19.0,53,0.00,,,0.00,Weather View 32 v70,2013-04-03 12:19:00,
2013-04-03 08:25:00,27.0,12.6,29.92,WNW,292,2.0,19.0,54,0.00,,,0.00,Weather View 32 v70,2013-04-03 12:25:00,
2013-04-03 08:34:00,27.0,12.6,29.92,SW,225,6.0,19.0,54,0.00,,,0.00,Weather View 32 v70,2013-04-03 12:34:00,
2013-04-03 08:39:00,27.0,12.1,29.91,SW,225,9.0,19.0,53,0.00,,,0.00,Weather View 32 v70,2013-04-03 12:39:00,
2013-04-03 08:47:00,27.0,12.6,29.92,WNW,292,3.0,19.0,54,0.00,,,0.00,Weather View 32 v70,2013-04-03 12:47:00,
2013-04-03 08:54:00,28.0,12.6,29.92,SW,225,6.0,19.0,52,0.00,,,0.00,Weather View 32 v70,2013-04-03 12:54:00,
2013-04-03 09:05:00,28.0,12.2,29.91,South,180,3.0,19.0,51,0.00,,,0.00,Weather View 32 v70,2013-04-03 13:05:00,
2013-04-03 09:10:00,28.0,12.6,29.92,SSE,158,3.0,19.0,52,0.00,,,0.00,Weather View 32 v70,2013-04-03 13:10:00,
2013-04-03 09:19:00,28.0,11.7,29.91,SSW,202,4.0,19.0,50,0.00,,,0.00,Weather View 32 v70,2013-04-03 13:19:00,
2013-04-03 09:29:00,29.0,13.1,29.92,WNW,292,4.0,16.0,51,0.00,,,0.00,Weather View 32 v70,2013-04-03 13:29:00,
2013-04-03 09:35:00,29.0,12.2,29.92,SE,135,7.0,16.0,49,0.00,,,0.00,Weather View 32 v70,2013-04-03 13:35:00,
2013-04-03 09:44:00,29.0,12.7,29.92,SSE,158,6.0,16.0,50,0.00,,,0.00,Weather View 32 v70,2013-04-03 13:44:00,
2013-04-03 09:55:00,30.0,12.2,29.92,SSE,158,6.0,16.0,47,0.00,,,0.00,Weather View 32 v70,2013-04-03 13:55:00,
2013-04-03 10:04:00,30.0,12.7,29.92,SSE,158,4.0,23.0,48,0.00,,,0.00,Weather View 32 v70,2013-04-03 14:04:00,
2013-04-03 10:15:00,31.0,13.6,29.92,WNW,292,3.0,23.0,48,0.00,,,0.00,Weather View 32 v70,2013-04-03 14:15:00,
2013-04-03 10:20:00,31.0,13.6,29.92,WNW,292,3.0,23.0,48,0.00,,,0.00,Weather View 32 v70,2013-04-03 14:20:00,
2013-04-03 10:29:00,31.0,11.6,29.92,South,180,3.0,23.0,44,0.00,,,0.00,Weather View 32 v70,2013-04-03 14:29:00,
2013-04-03 10:34:00,31.0,11.6,29.92,WSW,248,3.0,23.0,44,0.00,,,0.00,Weather View 32 v70,2013-04-03 14:34:00,
2013-04-03 10:45:00,32.0,12.0,29.92,SE,135,5.0,23.0,43,0.00,,,0.00,Weather View 32 v70,2013-04-03 14:45:00,
2013-04-03 10:54:00,33.0,12.4,29.92,South,180,5.0,23.0,42,0.00,,,0.00,Weather View 32 v70,2013-04-03 14:54:00,
2013-04-03 10:59:00,33.0,13.4,29.92,West,270,3.0,18.0,44,0.00,,,0.00,Weather View 32 v70,2013-04-03 14:59:00,
2013-04-03 11:04:00,33.0,12.9,29.92,SSW,202,7.0,18.0,43,0.00,,,0.00,Weather View 32 v70,2013-04-03 15:04:00,
2013-04-03 11:09:00,33.0,12.4,29.92,SW,225,2.0,18.0,42,0.00,,,0.00,Weather View 32 v70,2013-04-03 15:09:00,
2013-04-03 11:19:00,34.0,12.8,29.92,West,270,3.0,18.0,41,0.00,,,0.00,Weather View 32 v70,2013-04-03 15:19:00,
2013-04-03 11:25:00,34.0,11.6,29.92,WSW,248,3.0,16.0,39,0.00,,,0.00,Weather View 32 v70,2013-04-03 15:25:00,
2013-04-03 11:34:00,34.0,12.8,29.92,West,270,5.0,16.0,41,0.00,,,0.00,Weather View 32 v70,2013-04-03 15:34:00,
2013-04-03 11:39:00,35.0,14.2,29.92,SSE,158,1.0,16.0,42,0.00,,,0.00,Weather View 32 v70,2013-04-03 15:39:00,
2013-04-03 11:48:00,35.0,13.1,29.91,South,180,6.0,16.0,40,0.00,,,0.00,Weather View 32 v70,2013-04-03 15:48:00,
2013-04-03 11:54:00,35.0,11.3,29.92,SSE,158,3.0,16.0,37,0.00,,,0.00,Weather View 32 v70,2013-04-03 15:54:00,
2013-04-03 12:05:00,36.0,12.8,29.91,West,270,0.0,16.0,38,0.00,,,0.00,Weather View 32 v70,2013-04-03 16:05:00,
2013-04-03 12:10:00,36.0,13.4,29.91,WSW,248,4.0,16.0,39,0.00,,,0.00,Weather View 32 v70,2013-04-03 16:10:00,
2013-04-03 12:19:00,36.0,13.4,29.92,West,270,7.0,16.0,39,0.00,,,0.00,Weather View 32 v70,2013-04-03 16:19:00,
2013-04-03 12:24:00,36.0,12.8,29.92,South,180,5.0,17.0,38,0.00,,,0.00,Weather View 32 v70,2013-04-03 16:24:00,
2013-04-03 12:35:00,36.0,13.4,29.91,WNW,292,3.0,18.0,39,0.00,,,0.00,Weather View 32 v70,2013-04-03 16:35:00,
2013-04-03 12:40:00,36.0,13.4,29.91,South,180,8.0,18.0,39,0.00,,,0.00,Weather View 32 v70,2013-04-03 16:40:00,
2013-04-03 12:49:00,36.0,12.2,29.91,SSW,202,1.0,18.0,37,0.00,,,0.00,Weather View 32 v70,2013-04-03 16:49:00,
2013-04-03 12:54:00,37.0,12.5,29.91,WSW,248,6.0,18.0,36,0.00,,,0.00,Weather View 32 v70,2013-04-03 16:54:00,
2013-04-03 13:04:00,37.0,13.1,29.91,WSW,248,5.0,18.0,37,0.00,,,0.00,Weather View 32 v70,2013-04-03 17:04:00,
2013-04-03 13:10:00,38.0,14.0,29.91,SE,135,6.0,18.0,37,0.00,,,0.00,Weather View 32 v70,2013-04-03 17:10:00,
2013-04-03 13:15:00,38.0,13.4,29.92,WSW,248,3.0,23.0,36,0.00,,,0.00,Weather View 32 v70,2013-04-03 17:15:00,
2013-04-03 13:24:00,38.0,12.7,29.92,South,180,3.0,23.0,35,0.00,,,0.00,Weather View 32 v70,2013-04-03 17:24:00,
2013-04-03 13:29:00,38.0,13.4,29.92,SW,225,10.0,23.0,36,0.00,,,0.00,Weather View 32 v70,2013-04-03 17:29:00,
2013-04-03 13:35:00,38.0,12.7,29.92,WSW,248,4.0,23.0,35,0.00,,,0.00,Weather View 32 v70,2013-04-03 17:35:00,
2013-04-03 13:45:00,38.0,11.4,29.92,SSE,158,8.0,23.0,33,0.00,,,0.00,Weather View 32 v70,2013-04-03 17:45:00,
2013-04-03 13:50:00,38.0,12.7,29.92,South,180,3.0,23.0,35,0.00,,,0.00,Weather View 32 v70,2013-04-03 17:50:00,
2013-04-03 14:00:00,38.0,11.4,29.92,WNW,292,10.0,23.0,33,0.00,,,0.00,Weather View 32 v70,2013-04-03 18:00:00,
2013-04-03 14:05:00,39.0,12.3,29.92,SSE,158,8.0,23.0,33,0.00,,,0.00,Weather View 32 v70,2013-04-03 18:05:00,
2013-04-03 14:14:00,40.0,14.5,29.92,West,270,2.0,21.0,35,0.00,,,0.00,Weather View 32 v70,2013-04-03 18:14:00,
2013-04-03 14:20:00,40.0,13.2,29.92,SW,225,2.0,21.0,33,0.00,,,0.00,Weather View 32 v70,2013-04-03 18:20:00,
2013-04-03 14:30:00,40.0,12.5,29.92,West,270,3.0,21.0,32,0.00,,,0.00,Weather View 32 v70,2013-04-03 18:30:00,
2013-04-03 14:39:00,39.0,11.6,29.92,West,270,2.0,21.0,32,0.00,,,0.00,Weather View 32 v70,2013-04-03 18:39:00,
2013-04-03 14:50:00,40.0,11.0,29.92,WNW,292,3.0,21.0,30,0.00,,,0.00,Weather View 32 v70,2013-04-03 18:50:00,
2013-04-03 14:59:00,40.0,12.5,29.92,SSE,158,8.0,21.0,32,0.00,,,0.00,Weather View 32 v70,2013-04-03 18:59:00,
2013-04-03 15:05:00,40.0,11.0,29.92,SE,135,3.0,21.0,30,0.00,,,0.00,Weather View 32 v70,2013-04-03 19:05:00,
2013-04-03 15:14:00,40.0,11.0,29.91,South,180,7.0,21.0,30,0.00,,,0.00,Weather View 32 v70,2013-04-03 19:14:00,
2013-04-03 15:20:00,40.0,10.3,29.91,SSE,158,5.0,21.0,29,0.00,,,0.00,Weather View 32 v70,2013-04-03 19:20:00,
2013-04-03 15:30:00,40.0,11.8,29.92,WSW,248,3.0,21.0,31,0.00,,,0.00,Weather View 32 v70,2013-04-03 19:30:00,
2013-04-03 15:35:00,41.0,11.1,29.91,SE,135,2.0,21.0,29,0.00,,,0.00,Weather View 32 v70,2013-04-03 19:35:00,
2013-04-03 15:44:00,41.0,11.1,29.91,WNW,292,3.0,18.0,29,0.00,,,0.00,Weather View 32 v70,2013-04-03 19:44:00,
2013-04-03 15:49:00,41.0,11.9,29.91,SSE,158,1.0,18.0,30,0.00,,,0.00,Weather View 32 v70,2013-04-03 19:49:00,
2013-04-03 15:55:00,41.0,11.9,29.91,West,270,1.0,18.0,30,0.00,,,0.00,Weather View 32 v70,2013-04-03 19:55:00,
2013-04-03 16:04:00,41.0,11.9,29.91,WNW,292,2.0,17.0,30,0.00,,,0.00,Weather View 32 v70,2013-04-03 20:04:00,
2013-04-03 16:10:00,41.0,11.9,29.92,SW,225,3.0,17.0,30,0.00,,,0.00,Weather View 32 v70,2013-04-03 20:10:00,
2013-04-03 16:15:00,41.0,12.6,29.92,SSW,202,8.0,16.0,31,0.00,,,0.00,Weather View 32 v70,2013-04-03 20:15:00,
2013-04-03 16:24:00,40.0,10.3,29.91,SSE,158,3.0,16.0,29,0.00,,,0.00,Weather View 32 v70,2013-04-03 20:24:00,
2013-04-03 16:29:00,41.0,11.9,29.92,SE,135,1.0,16.0,30,0.00,,,0.00,Weather View 32 v70,2013-04-03 20:29:00,
2013-04-03 16:35:00,41.0,11.1,29.92,West,270,4.0,16.0,29,0.00,,,0.00,Weather View 32 v70,2013-04-03 20:35:00,
2013-04-03 16:44:00,40.0,9.5,29.92,SE,135,2.0,16.0,28,0.00,,,0.00,Weather View 32 v70,2013-04-03 20:44:00,
2013-04-03 16:50:00,40.0,9.5,29.92,SW,225,5.0,16.0,28,0.00,,,0.00,Weather View 32 v70,2013-04-03 20:50:00,
2013-04-03 16:55:00,40.0,10.3,29.93,West,270,5.0,16.0,29,0.00,,,0.00,Weather View 32 v70,2013-04-03 20:55:00,
2013-04-03 17:05:00,40.0,9.5,29.93,SSE,158,13.0,14.0,28,0.00,,,0.00,Weather View 32 v70,2013-04-03 21:05:00,
2013-04-03 17:15:00,40.0,11.0,29.93,SSE,158,3.0,14.0,30,0.00,,,0.00,Weather View 32 v70,2013-04-03 21:15:00,
2013-04-03 17:24:00,40.0,11.0,29.93,WNW,292,2.0,14.0,30,0.00,,,0.00,Weather View 32 v70,2013-04-03 21:24:00,
2013-04-03 17:34:00,40.0,10.3,29.94,SSE,158,3.0,14.0,29,0.00,,,0.00,Weather View 32 v70,2013-04-03 21:34:00,
2013-04-03 17:40:00,40.0,11.0,29.94,SSE,158,1.0,14.0,30,0.00,,,0.00,Weather View 32 v70,2013-04-03 21:40:00,
2013-04-03 17:45:00,40.0,11.0,29.94,SSE,158,1.0,14.0,30,0.00,,,0.00,Weather View 32 v70,2013-04-03 21:45:00,
2013-04-03 17:52:00,40.0,11.0,29.94,WSW,248,5.0,14.0,30,0.00,,,0.00,Weather View 32 v70,2013-04-03 21:52:00,
2013-04-03 18:00:00,39.0,10.2,29.95,WNW,292,2.0,14.0,30,0.00,,,0.00,Weather View 32 v70,2013-04-03 22:00:00,
2013-04-03 18:09:00,39.0,10.9,29.95,South,180,1.0,14.0,31,0.00,,,0.00,Weather View 32 v70,2013-04-03 22:09:00,
2013-04-03 18:15:00,39.0,10.9,29.95,SW,225,3.0,14.0,31,0.00,,,0.00,Weather View 32 v70,2013-04-03 22:15:00,
2013-04-03 18:25:00,38.0,10.7,29.95,West,270,1.0,14.0,32,0.00,,,0.00,Weather View 32 v70,2013-04-03 22:25:00,
2013-04-03 18:29:00,38.0,10.0,29.96,WSW,248,1.0,14.0,31,0.00,,,0.00,Weather View 32 v70,2013-04-03 22:29:00,
2013-04-03 18:39:00,38.0,9.3,29.96,SE,135,6.0,14.0,30,0.00,,,0.00,Weather View 32 v70,2013-04-03 22:39:00,
2013-04-03 18:45:00,38.0,9.3,29.97,WSW,248,9.0,14.0,30,0.00,,,0.00,Weather View 32 v70,2013-04-03 22:45:00,
2013-04-03 18:53:00,38.0,10.0,29.97,WSW,248,5.0,14.0,31,0.00,,,0.00,Weather View 32 v70,2013-04-03 22:53:00,
2013-04-03 18:59:00,37.0,9.1,29.98,WSW,248,10.0,23.0,31,0.00,,,0.00,Weather View 32 v70,2013-04-03 22:59:00,
2013-04-03 19:05:00,37.0,9.8,29.98,WSW,248,6.0,23.0,32,0.00,,,0.00,Weather View 32 v70,2013-04-03 23:05:00,
2013-04-03 19:14:00,37.0,9.8,29.99,SE,135,5.0,23.0,32,0.00,,,0.00,Weather View 32 v70,2013-04-03 23:14:00,
2013-04-03 19:19:00,37.0,11.2,30.00,WSW,248,6.0,23.0,34,0.00,,,0.00,Weather View 32 v70,2013-04-03 23:19:00,
2013-04-03 19:30:00,36.0,10.3,30.00,SSE,158,5.0,23.0,34,0.00,,,0.00,Weather View 32 v70,2013-04-03 23:30:00,
2013-04-03 19:39:00,36.0,11.0,30.01,WSW,248,6.0,23.0,35,0.00,,,0.00,Weather View 32 v70,2013-04-03 23:39:00,
2013-04-03 19:49:00,36.0,11.6,30.01,SW,225,4.0,23.0,36,0.00,,,0.00,Weather View 32 v70,2013-04-03 23:49:00,
2013-04-03 19:55:00,36.0,11.6,30.01,SSE,158,8.0,23.0,36,0.00,,,0.00,Weather View 32 v70,2013-04-03 23:55:00,
2013-04-03 20:04:00,35.0,11.3,30.03,West,270,4.0,19.0,37,0.00,,,0.00,Weather View 32 v70,2013-04-04 00:04:00,
2013-04-03 20:10:00,35.0,11.9,30.02,WSW,248,5.0,19.0,38,0.00,,,0.00,Weather View 32 v70,2013-04-04 00:10:00,
2013-04-03 20:15:00,35.0,12.5,30.03,West,270,1.0,19.0,39,0.00,,,0.00,Weather View 32 v70,2013-04-04 00:15:00,
2013-04-03 20:24:00,34.0,12.2,30.03,WNW,292,3.0,17.0,40,0.00,,,0.00,Weather View 32 v70,2013-04-04 00:24:00,
2013-04-03 20:34:00,34.0,12.8,30.05,West,270,4.0,14.0,41,0.00,,,0.00,Weather View 32 v70,2013-04-04 00:34:00,
2013-04-03 20:45:00,34.0,13.3,30.05,SSE,158,13.0,14.0,42,0.00,,,0.00,Weather View 32 v70,2013-04-04 00:45:00,
2013-04-03 20:50:00,34.0,13.3,30.05,South,180,4.0,14.0,42,0.00,,,0.00,Weather View 32 v70,2013-04-04 00:50:00,
2013-04-03 20:59:00,34.0,13.8,30.06,SW,225,5.0,14.0,43,0.00,,,0.00,Weather View 32 v70,2013-04-04 00:59:00,
2013-04-03 21:04:00,34.0,13.8,30.06,WSW,248,1.0,14.0,43,0.00,,,0.00,Weather View 32 v70,2013-04-04 01:04:00,
2013-04-03 21:09:00,33.0,12.9,30.07,SW,225,3.0,16.0,43,0.00,,,0.00,Weather View 32 v70,2013-04-04 01:09:00,
2013-04-03 21:20:00,33.0,13.4,30.07,West,270,1.0,16.0,44,0.00,,,0.00,Weather View 32 v70,2013-04-04 01:20:00,
2013-04-03 21:29:00,33.0,14.0,30.06,SE,135,1.0,20.0,45,0.00,,,0.00,Weather View 32 v70,2013-04-04 01:29:00,
2013-04-03 21:34:00,33.0,14.0,30.07,SW,225,5.0,20.0,45,0.00,,,0.00,Weather View 32 v70,2013-04-04 01:34:00,
2013-04-03 21:40:00,33.0,14.0,30.06,WNW,292,4.0,20.0,45,0.00,,,0.00,Weather View 32 v70,2013-04-04 01:40:00,
2013-04-03 21:45:00,33.0,14.5,30.07,SSW,202,4.0,20.0,46,0.00,,,0.00,Weather View 32 v70,2013-04-04 01:45:00,
2013-04-03 21:54:00,33.0,14.5,30.08,SSE,158,3.0,20.0,46,0.00,,,0.00,Weather View 32 v70,2013-04-04 01:54:00,
2013-04-03 22:00:00,32.0,14.5,30.09,SSW,202,3.0,20.0,48,0.00,,,0.00,Weather View 32 v70,2013-04-04 02:00:00,
2013-04-03 22:10:00,33.0,14.5,30.08,South,180,5.0,20.0,46,0.00,,,0.00,Weather View 32 v70,2013-04-04 02:10:00,
2013-04-03 22:20:00,32.0,15.0,30.09,SSW,202,1.0,20.0,49,0.00,,,0.00,Weather View 32 v70,2013-04-04 02:20:00,
2013-04-03 22:29:00,32.0,14.5,30.09,South,180,2.0,18.0,48,0.00,,,0.00,Weather View 32 v70,2013-04-04 02:29:00,
2013-04-03 22:34:00,32.0,15.0,30.09,South,180,3.0,18.0,49,0.00,,,0.00,Weather View 32 v70,2013-04-04 02:34:00,
2013-04-03 22:45:00,32.0,15.0,30.08,SE,135,2.0,14.0,49,0.00,,,0.00,Weather View 32 v70,2013-04-04 02:45:00,
2013-04-03 22:55:00,32.0,15.9,30.08,South,180,5.0,20.0,51,0.00,,,0.00,Weather View 32 v70,2013-04-04 02:55:00,
2013-04-03 23:04:00,32.0,16.8,30.09,South,180,2.0,20.0,53,0.00,,,0.00,Weather View 32 v70,2013-04-04 03:04:00,
2013-04-03 23:14:00,32.0,17.6,30.09,SE,135,5.0,20.0,55,0.00,,,0.00,Weather View 32 v70,2013-04-04 03:14:00,
2013-04-03 23:20:00,32.0,18.1,30.09,West,270,2.0,20.0,56,0.00,,,0.00,Weather View 32 v70,2013-04-04 03:20:00,
2013-04-03 23:29:00,32.0,18.5,30.10,SSE,158,3.0,20.0,57,0.00,,,0.00,Weather View 32 v70,2013-04-04 03:29:00,
2013-04-03 23:41:00,31.0,17.9,30.11,WSW,248,2.0,20.0,58,0.00,,,0.00,Weather View 32 v70,2013-04-04 03:41:00,
2013-04-03 23:50:00,31.0,18.7,30.10,SSE,158,4.0,18.0,60,0.00,,,0.00,Weather View 32 v70,2013-04-04 03:50:00,
2013-04-03 23:59:00,31.0,19.1,30.11,SW,225,3.0,18.0,61,0.00,,,0.00,Weather View 32 v70,2013-04-04 03:59:00,